Content
SEND FEEDBACK

Daily
Averages
Monthly
Summary
Canada

PRINCE RUPERT, BRITISH COLUMBIA


Home > North America > Canada > British Columbia
Elevation: 111 feet     Latitude: 54 17N     Longitude: 130 27W

WEATHER
 
SELECT A DAY
Number of Records: 355,631;   Date Range: 1/1/95 - 10/24/14
 
SHARE

PRINT THIS DATA

[ ← Previous Day ]
WEATHER ALMANAC - OCTOBER 18, 2013
[ Next Day → ]
[ °C ]   °F
Weather ElementAverageHighLow
Temperature46.1 °F48.2 °F (1:00 pm)44.6 °F (4:00 am)
Dewpoint44.2 °F44.6 °F (1:00 am)42.8 °F (3:00 pm)
Humidity93.1 %100 % (4:00 am)82 % (3:00 pm)
Barometer30.32 in30.34 in (2:18 am)30.27 in (8:00 pm)
Wind Speed3.4 mph5.8 mph (4:00 pm)
Weather ElementAverage
Visibility8.4 mi
Wind DirectionE (85.3 °)

Weather ElementTotal
Precipitation---
Heating Degree Days18.6 (Base 65)
Averaged from 36 records on October 18, 2013
WEATHER CONDITIONS BREAKOUT
WIND DIRECTION BREAKOUT
WEATHER BY HOUR - OCTOBER 18, 2013
[ °C ]   °F
Local TimeTemperatureDewpointHumidityBarometerVisibilityWind DirectionWind SpeedGust SpeedPrecipitationEventsConditions
1:00 AM46.4 °F44.6 °F93 %30.32 in9.0 miENE (70°)4.6 mphOvercast
1:51 AM46.4 °F44.6 °F93 %30.33 in9.0 miNNE (30°)4.6 mphOvercast
2:00 AM46.4 °F44.6 °F93 %30.33 in9.0 miNNE (30°)3.5 mphOvercast
2:18 AM46.4 °F44.6 °F93 %30.34 in9.0 miENE (60°)3.5 mphOvercast
3:00 AM46.4 °F44.6 °F93 %30.34 in9.0 miEast (80°)4.6 mphOvercast
3:20 AM46.4 °F44.6 °F93 %30.33 in9.0 miEast (90°)3.5 mphOvercast
3:21 AM46.4 °F44.6 °F93 %30.33 in9.0 miEast (80°)3.5 mphOvercast
3:22 AM46.4 °F44.6 °F93 %30.33 in9.0 miEast (80°)3.5 mphOvercast
3:23 AM46.4 °F44.6 °F93 %30.33 in9.0 miEast (80°)3.5 mphOvercast
3:27 AM46.4 °F44.6 °F93 %30.33 in9.0 miENE (70°)3.5 mphOvercast
4:00 AM44.6 °F44.6 °F100 %30.32 in9.0 miENE (70°)2.3 mphOvercast
4:19 AM44.6 °F44.6 °F100 %30.32 in5.0 miSE (130°)3.5 mphOvercast
4:27 AM44.6 °F44.6 °F100 %30.32 in4.0 miCalmOvercast
4:30 AM44.6 °F44.6 °F100 %30.33 in6.0 miCalmOvercast
5:00 AM44.6 °F44.6 °F100 %30.33 in9.0 miCalmOvercast
6:00 AM44.6 °F44.6 °F100 %30.33 in9.0 miEast (90°)3.5 mphOvercast
7:00 AM44.6 °F44.6 °F100 %30.32 in9.0 miEast (80°)3.5 mphOvercast
8:00 AM44.6 °F44.6 °F100 %30.32 in9.0 miENE (70°)4.6 mphOvercast
8:59 AM44.6 °F44.6 °F100 %30.32 in5.0 miENE (70°)3.5 mphOvercast
9:00 AM44.6 °F44.6 °F100 %30.31 in5.0 miENE (70°)3.5 mphOvercast
9:09 AM44.6 °F44.6 °F100 %30.32 in6.0 miEast (80°)3.5 mphOvercast
10:00 AM44.6 °F44.6 °F100 %30.32 in9.0 miENE (70°)4.6 mphOvercast
10:28 AM46.4 °F44.6 °F93 %30.32 in9.0 miENE (60°)4.6 mphOvercast
11:00 AM46.4 °F44.6 °F93 %30.33 in9.0 miEast (80°)2.3 mphOvercast
12:00 PM46.4 °F44.6 °F93 %30.33 in9.0 miENE (70°)2.3 mphOvercast
1:00 PM48.2 °F44.6 °F87 %30.33 in9.0 miNE (50°)4.6 mphOvercast
2:00 PM48.2 °F44.6 °F87 %30.33 in9.0 miNorth (360°)3.5 mphOvercast
3:00 PM48.2 °F42.8 °F82 %30.31 in9.0 miNW (320°)4.6 mphOvercast
4:00 PM48.2 °F42.8 °F82 %30.31 in9.0 miNorth (10°)5.8 mphOvercast
5:00 PM48.2 °F44.6 °F87 %30.31 in9.0 miNNW (330°)4.6 mphOvercast
6:00 PM48.2 °F42.8 °F82 %30.29 in9.0 miNNW (340°)3.5 mphOvercast
7:00 PM46.4 °F42.8 °F87 %30.28 in9.0 miNorth (10°)3.5 mphOvercast
8:00 PM46.4 °F42.8 °F87 %30.27 in9.0 miNorth (10°)4.6 mphOvercast
9:00 PM46.4 °F42.8 °F87 %30.28 in9.0 miNNE (20°)4.6 mphOvercast
10:00 PM46.4 °F42.8 °F87 %30.27 in9.0 miNorth (10°)2.3 mphOvercast
11:00 PM46.4 °F42.8 °F87 %30.27 in9.0 miVariable2.3 mphOvercast
Hourly data recorded from CYPR, located miles away from Prince Rupert, British Columbia







STORIES FROM OUR PARTNERS